星链-37931(STARLINK-37931)

导读

STARLINK-37931(NORAD编号69963)是美国SpaceX公司星链低轨通信星座的组成卫星,2026年上半年由猎鹰9号火箭发射入轨,属于星链V2优化版序列。该卫星运行于高度约550公里、倾角53度的近地轨道,轨道周期约93.8分钟,搭载高性能通信载荷与星间激光链路,主要面向全球提供低延迟、高速率的宽带互联网接入服务,可支撑偏远地区通信、应急网络保障等场景。截至2026年7月,该卫星处于正常在轨运行状态,是星链全球超9000颗在轨工作卫星的一员。

Basic Information
目录编号:
69963
目录名称:
STARLINK-37931
国际标识:
2026-157W
轨道中心:
EARTH
卫星名称:
星链-37931
卫星全名:
星链-37931(STARLINK-37931)
卫星状态:
在轨 (已飞行58 天)
发射日期:
2026-07-09 UTC
国别 :
美国 (US)
星等 :
--
Orbit Information
数据来源 国际轨道数据
星历时间: 2026-09-05T03:31:22+0800
12小时前
查看轨道信息
半长轴: 6840.835km
偏心率: 0.0000948
轨道倾角: 53.160°
近地点辐角 82.422°
升交点赤经 47.108°
平近点角 277.689°
近地点: 462.049km
远地点: 463.347km
周期: 93.848分钟
每日圈数: 15.344019
Detailed Information
固有亮度:
5
最大亮度:
2.5
卫星平台:
Starlink V1.0
覆盖范围:
全球
运营商:
太空探索技术公司
运营商所在国:
美国
制造商(研发单位):
太空探索技术公司
制造商所在国:
美国
使用方式:
暂无
Satellite Introduction
Starlink 计划是 SpaceX 推出的全球卫星互联网项目,通过发射低轨道卫星,为全球尤其是偏远地区提供高速、低延迟的互联网服务。自 2019 年起,Starlink 已部署数千颗卫星,旨在缩小全球数字鸿沟,推动互联网普及。该项目还为军事、航空等行业提供通信支持,带来广泛经济效益。
2D Orbit Map
3D Orbit Map
Orbit Altitude Analysis Chart
Orbit Inclination Analysis Chart
Orbit Comprehensive Analysis Chart
View Comprehensive Chart
Conjunction Data List
Event ID Objects TCA Miss Dist (km) Collision Risk Probability Collision Risk Index (CRI) Action
CDM_260907-054806-534406-996321
2026-09-07T
05:48:51+0000
0.622 km
远距离
5.748196E-5 中风险 0.7
CDM_260907-125006-534406-996321
2026-09-07T
12:50:56+0000
1.270 km
极远距离
5.414206E-6 低风险 0.5
CDM_260907-111706-534406-996321
2026-09-07T
11:17:08+0000
1.926 km
极远距离
1.562225E-6 低风险 0.39
CDM_260903-215104-316006-996324
2026-09-03T
21:51:57+0000
2.656 km
极远距离
1.551414E-6 低风险 0.39
CDM_260830-155505-632106-996321
2026-08-30T
15:55:38+0000
2.794 km
极远距离
1.462889E-6 低风险 0.38
CDM_260907-041506-534406-996321
2026-09-07T
04:15:03+0000
2.524 km
极远距离
9.009155E-7 极低风险 0.34